Location: Finkenwalde
(53.3770°N, 14.6418°E)
Time: 01:07:50
(UTC+00:00)

SJ-11-01 - Pass Details

Date: 05 February 2023
Orbit: 682 x 699 km, 97.9° (Epoch: 20 March)

Event Time Altitude Azimuth Distance (km) Brightness Sun altitude
Rises 16:16:19 0° 163° (SSE) 3,059 7.7 -4.2°
Reaches altitude 10° 16:18:32 10° 163° (SSE) 2,150 6.9 -4.5°
Maximum altitude 16:23:16 90° 76° (ENE) 706 4.4 -5.2°
Drops below altitude 10° 16:28:03 10° 346° (NNW) 2,175 6.8 -5.8°
Sets 16:30:19 0° 346° (NNW) 3,099 7.6 -6.1°
